sat.trackr.live / text

‹ back to catalog

STARLINK-2041

NORAD 47657 · 2021-012AP

PAYLOAD ACTIVE UNKNOWN

§ Identity

Operator
Country
US
Launch date
2021-02-16
Launch site
AFETR
Launch vehicle
Mass (kg)
RCS (m²)

Purposes: comms

External: N2YO · Heavens-Above · Gunter

§ Orbital elements

Epoch: 2026-08-25T05:22:52.069728Z

Period
87.86 min
Inclination
53.1308°
Eccentricity
0.0005245
Mean motion
16.38948646 rev/d
Perigee alt
165.2 km
Apogee alt
172.0 km
Semi-major
6,546.7 km
B*
5.1354e-4
RAAN
305.1197°
Arg perigee
318.8301°
Mean anomaly
41.2350°
Rev number
30,667

§ Raw data

STARLINK-20411 47657U 21012AP  26237.22421377  .06224580  12379-4  51354-3 0  99972 47657  53.1308 305.1197 0005245 318.8301  41.2350 16.38948646306679

JSON: /api/v1/satellites/47657 · /tle

For live sub-satellite position, see the globe view (requires WebGL).

§ Visibility from observer

Set your observer location to see the next 7 days of passes ≥ 10°. The values pass through the URL so the page stays shareable.

No JS? Fill the form by hand. The geolocation button needs JavaScript.